127  
ASHW40 PHFO 171330  
RWRHI  
 
WEATHER ROUNDUP FOR HAWAII  
NATIONAL WEATHER SERVICE HONOLULU HI  
300 AM HST WED SEP 17 2014  
 
THIS IS AN AUTOMATED REPORT THAT HAS NOT BEEN QUALITY CONTROLLED.  
 
NOTE..."FAIR" INDICATES FEW OR NO CLOUDS BELOW 12,000 FEET WITH NO  
SIGNIFICANT WEATHER AND/OR S TO VISIBILITY
.  
 
* - THESE SITES REPORT LIMITED FIELDS  
 
HIZ001>004-171400-  
KAUAI-NIIHAU-  
 
CITY SKY/WX TMP DP RH WIND PRES REMARKS
 
LIHUE APT MOCLDY 77 71 82 N5 29.95F  
PORT ALLEN* N/A 77 N/A N/A NE3 N/A  
POIPU* N/A 77 N/A N/A N5 N/A  
PRINCEVILLE* NOT AVBL  
KOKOLE POINT* N/A 75 N/A N/A MISG N/A  
MOLOAA DAIRY* NOT AVBL  
WAIMEA HTS* NOT AVBL  
PUU OPAE* NOT AVBL  
PUU LUA* NOT AVBL  
MAKAHA RIDGE* NOT AVBL  

 
 
HIZ005>011-171400-  
OAHU-  
 
CITY SKY/WX TMP DP RH WIND PRES REMARKS
 
HONOLULU PTCLDY 79 70 74 N3 29.92F  
KALAELOA CLOUDY 78 70 76 CALM 29.93F  
KANEOHE MCB MOCLDY 77 74 90 CALM 29.93F  
WHEELER FIELD CLOUDY 74 70 86 NW3 29.94F  
BELLOWS* N/A N/A N/A N/A E10 N/A  
KAHUKU* N/A N/A N/A N/A E1 N/A  
WHEELER* NOT AVBL  
WAIANAE HARBOR NOT AVBL  
DILLINGHAM* N/A 73 70 88 NE1 N/A  
KAHUKU TRN* N/A 73 72 94 E3G9 N/A  
KAWAILOA* NOT AVBL  
KII* N/A 79 72 78 E10 N/A  
MAKUA RANGE* N/A 81 68 65 E6G12 N/A  
OAHU FOREST NW NOT AVBL  
SCHOFIELD BRK* N/A 72 68 88 CALM N/A  
SCHOFIELD S* NOT AVBL  
WAIANAE VLY* NOT AVBL  
KUAOKALA* NOT AVBL  
HONOULIUULI* NOT AVBL  
MOKUOLOE IS* N/A N/A N/A N/A MISG N/A  
PALEHUA* NOT AVBL  
WAIAWA PHB* NOT AVBL  

 
 
HIZ012>013-171400-  
MOLOKAI-  
 
CITY SKY/WX TMP DP RH WIND PRES REMARKS
 
MOLOKAI AIRPT CLEAR 75 71 87 N7 29.93F  
KALAUPAPA NOT AVBL  
MAKAPULAPAI* NOT AVBL  
MOLOKAI 1* NOT AVBL  
PUU ALII* N/A 60 58 94 E1 N/A  

 
 
HIZ016-171400-  
KAHOOLAWE-  
 
CITY SKY/WX TMP DP RH WIND PRES REMARKS
 
KAHOOLAWE* NOT AVBL  
HAKIOAWA* NOT AVBL  
HONOKANAIA* N/A 78 68 72 NE3G10 29.93F  
KANELOA* N/A 75 68 78 E3 29.16F  
KEALIALALO* NOT AVBL  
LUA MAKIKA* NOT AVBL  

 
 
HIZ014>015-171400-  
LANAI-  
 
CITY SKY/WX TMP DP RH WIND PRES REMARKS
 
LANAI CITY FAIR 73 68 84 E8G16 29.98F  
LANAI 1* NOT AVBL  

 
 
HIZ017>028-171400-  
MAUI-  
 
CITY SKY/WX TMP DP RH WIND PRES REMARKS
 
KAHULUI CLEAR 73 68 84 SE5 29.92F  
KAPALUA-W MAUI NOT AVBL  
HANA AIRPORT CLEAR 70 68 94 CALM 29.95S  
HANA* N/A 72 N/A N/A S3 N/A  
HALEAKALA SUMM N/A 46 21 36 NE10 N/A  
MAALAEA BAY* NOT AVBL  
HALEAKALA* NOT AVBL  
KAUPO GAP* NOT AVBL  
KULA 1* N/A 53 42 66 E6 N/A  

 
 
HIZ023>026-171400-  
BIG ISLAND OF HAWAII COAST AND LOWER SLOPES-  
 
CITY SKY/WX TMP DP RH WIND PRES REMARKS
 
KAILUA KONA CLEAR 78 66 66 CALM 29.89F  
HILO CLEAR 71 61 70 SW7 29.92S  
HONOKAA* NOT AVBL  
KAWAIHAE MWT* N/A 79 N/A N/A E1 N/A  
KAWAIHAE* N/A 79 N/A N/A E2 N/A  
SOUTH POINT* N/A 70 N/A N/A N5 N/A  
UPOLU AIRPORT* N/A N/A N/A N/A E10 N/A  
KAMUELA* SUNNY 59 55 88 NE10 30.03S  
HAKALAU* N/A 45 41 87 SW2 N/A  
KALOKO-HONOKO* N/A 73 68 83 E2 29.88F  
PALI 2* N/A 68 57 68 E3G17 N/A  
KEALAKOMO* N/A 79 61 53 VRB12G22 N/A  
KAUPULEHU* NOT AVBL  
KAPAPALA* N/A 65 64 95 CALM N/A  
LOWER KAHUKU* NOT AVBL  
PUHE CS* NOT AVBL  
PUHO CS* N/A 75 65 71 E3 N/A  
PTA KEAMUKU* N/A 57 54 88 S8 N/A  
WAIKOLOA* NOT AVBL  

 
 
HIZ027>028-171400-  
BIG ISLAND OF HAWAII INTERIOR AND SUMMMITS-  
 
CITY SKY/WX TMP DP RH WIND PRES REMARKS
 
BRADSHAW FIELD CLOUDY 49 44 83 E3 30.28F  
MK VISITOR CEN NOT AVBL  
MAUNA KEA* N/A 39 -8 13 SE2 N/A  
MAUNA LOA* N/A N/A N/A N/A MISG N/A  
MAUNA LOA 1* N/A N/A N/A N/A MISG N/A  
PTA KIPUKA* N/A 52 50 93 E3 N/A  
PTA RANGE 17* N/A 55 52 88 E5 N/A  
PTA WEST* N/A 57 54 88 SE10 N/A  
NENE CABIN* NOT AVBL  
AHUMOA* NOT AVBL  
PTA PORTABLE* NOT AVBL  
PUU MALI* NOT AVBL  

 
 
HIC003-171400-  
NORTHWEST ISLANDS-  
 
CITY SKY/WX TMP DP RH WIND PRES REMARKS
 
MIDWAY ISLAND CLEAR 81 73 78 E8 30.10F  
MIDWAY NOS* NOT AVBL  
FRENCH FRIGATE NOT AVBL  

 
 
PHZ110>124-180-171400-  
BUOY REPORTS  
 
STATION/POSITION TIME TEMP WIND PRES WAVE SWELL
 
AIR SEA DIR/SP/G HT/PER HT/DIR  
(UTC) (F) (DEG/KT/KT) (MB) (FT/S) (FT/D)  
BUOY 51001 NOT AVBL  
BUOY 51101 NOT AVBL  
BUOY 51100 1300 79 81 70/ 10/ 12 1013.2F  
BUOY 51003 1300 81 83 70/ 10/ 14 1013.1F 6/15 5  
BUOY 51004 1225 79 81 60/ 8/ 10 1012.0F 6/14 5/200  
BARBERS PT BUOY NOT AVBL  
WAIMEA BAY BUOY 1300 82 N/A 7/ 9  
KAILUA BAY BUOY 1300 83 N/A 5/ 9 2/ 80  
LANAI BUOY NOT AVBL  
BARBERS PT 2 1300 83 N/A 4/15 3/190  
PAUWELA MAUI 1300 81 N/A 4/ 9 2/340  
HILO 1300 81 N/A 5/12 3/ 10  
KANEOHE BAY BUOY NOT AVBL  
HANALEI KAUAI NOT AVBL  
KAHULUI HARBOR 1300 78 83 300/ 7/ 9 1012.9F  
HONOLULU HARBOR 1300 79 50/ 1/ 2 1013.4F  
KILO NALU NOT AVBL  
HILO HARBOR 1300 72 210/ 4/ 5 1012.6F  
MOKUOLOE 1300 77 85 260/ 3/ 4 1013.6F  
NAWILIWILI 1300 83 N/A  
WHOTS BUOY NOT AVBL  
BUOY 51028 NOT AVBL  

 
   
.....................KEY.....................................
 
 
SKY/WX - SKY CONDITIONS/PRESENT WEATHER  
TMP - TEMPERATURE IN FAHRENHEIT  
DWPT - DEWPOINT IN FAHRENHEIT  
RH - RELATIVE HUMIDITY IN PERCENT  
WIND - DIRECTION AND SPEED /MPH FOR ISLANDS...KTS FOR BUOYS/  
PRES - MEAN SEA LEVEL PRESSURE IN INCHES OF HG  
VSB - VISIBILITY IN MILES  
HX - HEAT INDEX  
WCI - WIND CHILL INDEX  
VRB - VARIABLE WIND DIRECTION  
N/A - NOT AVAILABLE  
 
CLICK HERE TO GO TO PREVIOUS BULLETINS.

The Nexlab HI Page Main Text Page